User: anonymous   Login
Location: Cluny
(50.9333°N, 112.8167°W)
Time: 06:04:46
(UTC-06:00)
Language:

Hamsat - Orbit

View from above orbital plane
View from above orbital plane
View from above satellite
View from above satellite

Ground track
Ground track

The orbit data is extracted from the following two-line orbital elements,

1 28650U 05017B   16120.18610782  .00000745  00000-0  85984-4 0  9991
2 28650  97.6049 103.9887 0025231  63.4283 296.9516 14.88222166594582
Epoch (UTC): 29 April 2016 04:27:59
Eccentricity: 0.0025231
inclination: 97.6049°
perigee height: 586 km
apogee height: 621 km
right ascension of ascending node: 103.9887°
argument of perigee: 63.4283°
revolutions per day: 14.88222166
mean anomaly at epoch: 296.9516°
orbit number at epoch: 59458

The dashed part of the orbit path shows where the satellite is in the earth's shadow,  

DLR